This is the latest recevied weather packets stored in our database for station/object DM2KB-13. If no packets are shown the sender has not sent any weather packets the latest 10 day(s).
| Time | Temp. | Humidity | Pressure | Rain* | Wind** | Luminosity | Snow |
|---|---|---|---|---|---|---|---|
| 1777726261 | 25.56° C | 49% | 1016.1 hPa | 0 mm | - | 621 W/m² | - |
| 1777725961 | 25.56° C | 48% | 1016.2 hPa | 0 mm | - | 526 W/m² | - |
| 1777725661 | 25.56° C | 50% | 1016.2 hPa | 0 mm | - | 592 W/m² | - |
| 1777725360 | 25° C | 49% | 1016.2 hPa | 0 mm | - | 643 W/m² | - |
| 1777725060 | 25° C | 50% | 1016.2 hPa | 0 mm | - | 652 W/m² | - |
| 1777724760 | 25° C | 50% | 1016.3 hPa | 0 mm | - | 719 W/m² | - |
| 1777724460 | 25° C | 49% | 1016.4 hPa | 0 mm | - | 759 W/m² | - |
| 1777724159 | 25° C | 49% | 1016.5 hPa | 0 mm | - | 610 W/m² | - |
| 1777723859 | 25° C | 48% | 1016.6 hPa | 0 mm | - | 598 W/m² | - |
| 1777723559 | 25° C | 48% | 1016.5 hPa | 0 mm | - | 642 W/m² | - |
| 1777723258 | 25.56° C | 48% | 1016.6 hPa | 0 mm | - | 589 W/m² | - |
| 1777722958 | 25.56° C | 47% | 1016.6 hPa | 0 mm | - | 622 W/m² | - |
| 1777722658 | 25.56° C | 47% | 1016.7 hPa | 0 mm | - | 715 W/m² | - |
| 1777722358 | 25.56° C | 47% | 1016.8 hPa | 0 mm | - | 708 W/m² | - |
| 1777722057 | 25° C | 47% | 1016.9 hPa | 0 mm | - | 837 W/m² | - |
| 1777721757 | 25° C | 48% | 1016.9 hPa | 0 mm | - | 661 W/m² | - |
| 1777721457 | 24.44° C | 48% | 1017 hPa | 0 mm | - | 756 W/m² | - |
| 1777721156 | 24.44° C | 49% | 1017 hPa | 0 mm | - | 759 W/m² | - |
| 1777720856 | 24.44° C | 48% | 1017.1 hPa | 0 mm | - | 631 W/m² | - |
| 1777720556 | 24.44° C | 48% | 1017.2 hPa | 0 mm | - | 708 W/m² | - |
| 1777720256 | 24.44° C | 47% | 1017.1 hPa | 0 mm | - | 661 W/m² | - |
| 1777719955 | 24.44° C | 48% | 1017.1 hPa | 0 mm | - | 510 W/m² | - |
| 1777719655 | 24.44° C | 47% | 1017.3 hPa | 0 mm | - | 471 W/m² | - |
| 1777719355 | 24.44° C | 48% | 1017.2 hPa | 0 mm | - | 454 W/m² | - |
| 1777719054 | 24.44° C | 48% | 1017.3 hPa | 0 mm | - | 675 W/m² | - |
* Rain latest hour (hover to see other rain measurements)
** Current wind speed in m/s (hover to see current wind gust speed)